STARLINK-35036, 65406

Orbit data source: Space-Track

STARLINK-35036, 65406 is a payload satellite owned by SpaceX/Seattle (US) in LEO that was launched on Sun, 31 Aug 2025 UTC via an FALCON 9 launch vehicle from the Air Force Eastern Test Range (AFETR). Payload-class satellites include a variety of spacecraft equipped with specific instruments for various scientific and technological missions. These include communications satellites like Starlink; space stations such as the ISS; scientific satellites like the Hubble; Earth observation satellites from companies like Planet Labs, Umbra, and HawkEye 360; GPS; miniature CubeSats for education and research; and military/defense satellites.

Loading next visibility...
Identifier
65406, 2025-192C
Orbit
LEO
Country
Flag of USUS
Related business
Manufacturer
SpaceX/Seattle
Mission
Operational Commercial Communications
Bus & Motor
STARLINK V2MO, Unknown motor
Mass
575 kg wet, ~530 kg dry
Launch date (UTC)
2025-08-31 (10 months ago)
Launch vehicle
FALCON 9
Launch site
Air Force Eastern Test Range (AFETR)
Object type
Payload
Rocket body
Debris
Shape & HBR
Box + 2 Pan, 17.7 m
Radar Cross Section
36.964 m², Large (>1 m²)

Expand to show TLE details & history
Last TLE update: 1 day ago

TLE from 1 day ago
0 STARLINK-35036
1 65406U 25192C   26170.58386040  .00015528  00000-0  53537-3 0  9997
2 65406  53.1619 119.1414 0000956  57.6023 302.5070 15.30196362 44980
Epoch: 2026-06-19T14:00Z
TLE epoch observation values (Epoch: 2026-06-19T14:00:45.538Z)
Latitude
-0.00004°
Longitude
1.14088°
Altitude
475.774 km
Speed
7.629 km/s
True Right ascension
07h 56m 33s
True Declination
0° 00' 00"
Sunlit
Object was in daylight at epoch
Visualization orbit readout
Latitude
Unknown
Longitude
Unknown
Altitude
Unknown
Speed
Unknown
Apparent Right ascension
Unknown
Apparent Declination
Unknown
Sunlit
N/A
Visualization observer readout
Local Sidereal Time
07:15:56
Azimuth
Unknown
Elevation
Unknown
Doppler factor
Unknown
Orbital elements
Apogee altitude
476.137 km
Perigee altitude
474.827 km
Semi-major axis
6,853.619 km
Eccentricity
0.0001
Inclination
53.1619°
RAAN
119.1414°
Arg. of periapsis
57.6023°
True anomaly
302.49776°
Mean anomaly
302.507°
Eccentric anomaly
302.50238°
Mean motion
3.82528 °/min
Orbital period
94.11 mins
BSTAR
0.00053537
Loading maneuver chart data...
Computing Atmospheric mass density...
Loading historical data...
Loading historical data...
Loading historical data...
Loading historical data...
Loading historical data...
Loading historical data...
Loading historical data...

Documentation

Showing up to 5 results
|